Das Wetter in  D-61279 Heinzenberg / Taunus





Wetter Minimum- & Maximum-Werte im Juni 2017

Standort: Heinzenberg / Taunus - Höhe 297 m         8° 24' 1" Ost 50° 21' 51" Nord
(   3-stündige Aktualisierung    letzte Aktualisierung um 20:46 am 30.06.2017  )


Messgrösse

Minimum

Maximum

Durchschnitt

Temperatur West /
Luftfeuchte West
Anklicken für Monats-Diagramm

7,3 °C

05:53
10.06.2017

29 %

16:28
20.06.2017

35,1 °C

18:13
20.06.2017

91 %

06:22
04.06.2017

Temp

18,5 °C

Feuchte

68 %

Temperatur Ost /
Luftfeuchte Ost
Anklicken für Monats-Diagramm

7,8 °C

05:43
10.06.2017

--

--
--

35,5 °C

18:13
20.06.2017

--

--
--

18,9 °C

--

Luftdruck Anklicken für Monats-Diagramm

994,6 hPa

03:31
29.06.2017

1025,8 hPa

08:45
17.06.2017

1013,6 hPa

Taupunkt

4,1 °C

22:30
06.06.2017

20,0 °C

10:50
22.06.2017

12,0 °C

Windchill
( gefühlte Temperatur )

-0,9 °C

08:05
07.06.2017

35,1 °C

18:13
20.06.2017

17,1 °C

Windgeschwindigkeit /
Windrichtung
Anklicken für Monats-Diagramm

---

57,5 km/h / W-SW

14:20
07.06.2017

7,9 km/h
W-SW

Helligkeit /
Sonnenschein
Anklicken für Monats-Diagramm
Anklicken für Monats-Diagramm

Sonnenschein:

234:11 Stunden

Max: 14:10 Std am
19.06.2017

124 klux

14:23
25.06.2017

42 klux

Solarstrahlung Anklicken für Monats-Diagramm

---

848 W/m²

14:23
25.06.2017

309 W/m²

Regenmenge
    Juni 2017
Anklicken für Monats-Diagramm

Insgesamt 57,9 l/m²

in 28:55 Stunden
an 14 Tagen

16,9 l/m²

22:47
03.06.2017

Gesamtmenge

57,9 l/m²

Regen-Tage
    Juni 2017
Anklicken für Monats-Diagramm

>   0 mm/Tag

>   2 mm/Tag

>   5 mm/Tag

> 10 mm/Tag

> 20 mm/Tag

14 Tage     
6 Tage     
5 Tage     
  1 Tag     
0 Tage     

Eisige Tage Juni 2017 / 2016

Tmin ≤ -10°C     

0 Tage

/

0 Tage

Eistage Juni 2017 / 2016

Tmax <     0°C     

0 Tage

/

0 Tage

Frosttage Juni 2017 / 2016

Tmin ≤     0°C     

0 Tage

/

0 Tage

Kalte Tage Juni 2017 / 2016

Tmax <   10°C     

0 Tage

/

0 Tage

Warme Tage Juni 2017 / 2016

Tmax ≥   20°C     

28 Tage

/

23 Tage

Sommertage Juni 2017 / 2016

Tmax ≥   25°C     

15 Tage

/

8 Tage

Heisse Tage Juni 2017 / 2016

Tmax ≥   30°C     

6 Tage

/

4 Tage


Monatsdiagramm Juni 2017

Die Kurven zeigen den Durchschnittswert des jeweiligen Tages an


Wetter-Monatsübersicht Juni 2017
Datum
  Temperatur
   Luftdruck
   Wind
  Regen
   Luftfeuchte
   Helligkeit

Sonnen-
schein

Ø
Temp.

Min.
Temp.

Max.
Temp.

Ø
Luftdruck

Min.
Luftdruck

Max.
Luftdruck

Ø-Geschw.
Haupt-Richtg.

Max.
Wind

Menge /
Dauer

Ø
Feuchte

Min.
Feuchte

Max.
Feuchte

Ø
Helligkeit

Max.
Helligkeit

1.
Juni
19,0 °C9,9 °C
06:04
28,8 °C
18:04
1020,0 hPa1016,7 hPa
18:09
1022,1 hPa
06:04
2,0 km/h
NW
14,1 km/h
16:09  
---
64 %39 %
18:09
86 %
08:09
54,8 klux107,0 klux
14:14
13:20 Std 
2.
Juni
18,5 °C11,3 °C
05:50
29,2 °C
14:30
1016,2 hPa1013,6 hPa
14:40
1019,3 hPa
00:20
3,3 km/h
W-SW
36,3 km/h
17:05  
2,0 l/m²
1:25 Stunden
72 %44 %
14:20
86 %
23:16
36 klux115 klux
13:20
5:31 Std 
3.
Juni
19,8 °C14,2 °C
04:31
26,7 °C
16:16
1011,6 hPa1008,3 hPa
22:01
1015,0 hPa
00:11
4,1 km/h
NW
29,4 km/h
22:37  
16,9 l/m²
2:00 Stunden
77 %58 %
16:21
89 %
06:16
38 klux120 klux
14:31
5:25 Std 
4.
Juni
16,5 °C12,4 °C
23:52
22,4 °C
18:32
1013,3 hPa1010,0 hPa
01:37
1016,6 hPa
23:47
10,4 km/h
W-NW
31,0 km/h
16:02  
8,4 l/m²
7:40 Stunden
75 %43 %
17:52
91 %
06:22
45 klux118 klux
12:27
7:15 Std 
5.
Juni
15,6 °C9,4 °C
06:33
23,4 °C
18:38
1013,0 hPa1008,2 hPa
23:49
1016,7 hPa
01:37
1,0 km/h
NW
12,6 km/h
12:28  
---
71 %49 %
18:38
87 %
07:13
36 klux116 klux
14:38
4:45 Std 
6.
Juni
13,9 °C10,6 °C
22:55
19,2 °C
17:34
1004,4 hPa1001,6 hPa
09:44
1008,5 hPa
22:55
17,3 km/h
W-SW
52,4 km/h
18:04  
1,8 l/m²
1:45 Stunden
73 %48 %
17:39
87 %
06:19
34 klux121 klux
14:19
5:25 Std 
7.
Juni
12,7 °C9,5 °C
04:45
17,4 °C
15:40
1012,8 hPa1008,5 hPa
00:00
1018,7 hPa
23:56
26,8 km/h
W-SW
57,5 km/h
14:20  
0,6 l/m²
2:30 Stunden
67 %52 %
15:35
80 %
10:25
43 klux122 klux
12:35
7:15 Std 
8.
Juni
16,5 °C11,0 °C
05:46
22,7 °C
18:47
1016,7 hPa1013,3 hPa
18:47
1018,8 hPa
05:46
10,8 km/h
W-SW
33,0 km/h
12:27  
---
61 %49 %
18:52
72 %
06:46
45 klux105 klux
12:57
9:26 Std 
9.
Juni
15,5 °C10,9 °C
05:27
20,8 °C
12:12
1012,8 hPa1009,4 hPa
10:27
1017,7 hPa
23:58
7,2 km/h
W-SW
46,4 km/h
13:02  
5,8 l/m²
1:55 Stunden
72 %54 %
10:42
86 %
23:18
33 klux118 klux
14:42
6:09 Std 
10.
Juni
16,5 °C7,3 °C
05:53
25,4 °C
17:08
1019,4 hPa1017,7 hPa
00:03
1021,2 hPa
10:18
6,5 km/h
W
27,5 km/h
16:28  
0,2 l/m²
5 Minuten
69 %44 %
17:48
90 %
08:18
57 klux115 klux
12:48
13:50 Std 
11.
Juni
20,8 °C10,9 °C
05:29
30,5 °C
16:04
1016,2 hPa1010,8 hPa
19:34
1020,8 hPa
04:24
5,6 km/h
W-SW
27,0 km/h
16:14  
---
61 %34 %
15:34
83 %
06:39
52 klux107 klux
13:49
10:05 Std 
12.
Juni
19,1 °C13,2 °C
23:51
24,0 °C
16:20
1014,3 hPa1011,5 hPa
00:00
1017,5 hPa
23:51
14,3 km/h
NW
37,5 km/h
13:20  
---
10 Minuten
60 %40 %
14:45
80 %
06:40
55 klux107 klux
12:05
12:05 Std 
13.
Juni
15,6 °C8,8 °C
06:11
23,5 °C
17:16
1018,4 hPa1017,3 hPa
17:16
1019,6 hPa
23:57
4,7 km/h
NW
18,0 km/h
15:31  
---
66 %49 %
17:16
82 %
07:36
42 klux123 klux
12:41
8:40 Std 
14.
Juni
18,1 °C8,4 °C
05:42
27,8 °C
17:47
1017,8 hPa1014,1 hPa
19:57
1020,2 hPa
05:42
1,6 km/h
O-NO
16,8 km/h
10:06  
---
63 %41 %
16:52
85 %
07:52
56 klux110 klux
13:22
13:55 Std 
15.
Juni
20,7 °C10,4 °C
06:13
30,8 °C
15:53
1013,9 hPa1010,6 hPa
17:43
1016,8 hPa
06:13
3,8 km/h
W-SW
25,5 km/h
16:53  
---
63 %39 %
15:53
83 %
06:58
48 klux113 klux
14:53
10:15 Std 
16.
Juni
17,5 °C13,5 °C
23:55
20,5 °C
00:04
1018,5 hPa1013,5 hPa
00:04
1023,7 hPa
23:55
18,7 km/h
NW
34,0 km/h
14:09  
---
63 %54 %
14:24
73 %
06:44
36 klux115 klux
11:49
4:10 Std 
17.
Juni
14,7 °C8,4 °C
06:05
20,4 °C
18:30
1024,9 hPa1023,7 hPa
00:00
1025,8 hPa
08:45
6,0 km/h
W-NW
20,6 km/h
12:50  
---
73 %67 %
00:00
81 %
07:10
22 klux67 klux
10:10
1:30 Std 
18.
Juni
20,7 °C15,3 °C
06:01
28,0 °C
17:56
1023,5 hPa1021,0 hPa
17:56
1025,5 hPa
06:21
1,9 km/h
O
18,6 km/h
15:51  
---
67 %45 %
17:41
84 %
05:41
45,7 klux121,0 klux
13:36
8:30 Std 
19.
Juni
21,9 °C11,4 °C
06:07
32,3 °C
17:52
1019,4 hPa1015,3 hPa
17:52
1022,9 hPa
06:07
4,6 km/h
SO
25,1 km/h
13:02  
---
59 %34 %
17:22
85 %
07:57
56 klux100 klux
13:07
14:10 Std 
20.
Juni
24,2 °C12,9 °C
05:53
35,1 °C
18:13
1014,8 hPa1011,9 hPa
18:13
1017,2 hPa
01:58
2,8 km/h
NW
19,9 km/h
20:08  
---
56 %29 %
16:28
80 %
07:28
54 klux104 klux
14:23
13:15 Std 
21.
Juni
25,3 °C18,0 °C
06:04
34,0 °C
16:19
1015,0 hPa1012,2 hPa
18:34
1016,9 hPa
06:04
1,9 km/h
NW
16,6 km/h
12:24  
---
56 %34 %
16:19
75 %
07:09
52 klux101 klux
13:19
12:45 Std 
22.
Juni
22,8 °C14,7 °C
06:00
34,8 °C
14:40
1011,3 hPa1007,1 hPa
16:15
1014,9 hPa
02:20
7,6 km/h
W-SW
44,0 km/h
17:30  
9,3 l/m²
2:45 Stunden
68 %40 %
14:30
86 %
22:41
38 klux104 klux
14:35
8:05 Std 
23.
Juni
20,9 °C16,5 °C
06:31
27,4 °C
18:11
1013,6 hPa1010,5 hPa
00:01
1016,0 hPa
23:57
10,5 km/h
W
32,9 km/h
15:06  
---
69 %46 %
18:01
87 %
00:11
41 klux113 klux
14:36
6:40 Std 
24.
Juni
18,9 °C12,3 °C
05:42
26,2 °C
18:32
1014,8 hPa1011,9 hPa
18:32
1016,6 hPa
05:42
15,1 km/h
W
44,2 km/h
12:42  
---
62 %42 %
18:32
82 %
05:52
56 klux114 klux
15:27
11:45 Std 
25.
Juni
18,7 °C14,1 °C
02:07
24,0 °C
15:08
1011,9 hPa1010,2 hPa
18:43
1014,1 hPa
00:27
13,0 km/h
W
46,1 km/h
12:13  
---
5 Minuten
66 %58 %
12:28
72 %
05:08
34 klux124 klux
14:23
3:50 Std 
26.
Juni
20,5 °C16,2 °C
06:03
28,6 °C
18:03
1011,4 hPa1009,5 hPa
18:03
1012,8 hPa
09:03
8,1 km/h
NW
19,6 km/h
11:53  
---
64 %46 %
17:53
76 %
06:08
45 klux120 klux
11:53
8:30 Std 
27.
Juni
18,5 °C14,2 °C
05:34
24,9 °C
17:19
1007,6 hPa1002,2 hPa
21:34
1012,0 hPa
00:54
1,1 km/h
O
14,5 km/h
16:54  
1,2 l/m²
1:05 Stunden
76 %64 %
17:39
84 %
10:29
23 klux106 klux
14:44
1:05 Std 
28.
Juni
18,9 °C15,7 °C
23:56
23,9 °C
16:10
997,9 hPa994,9 hPa
19:45
1002,4 hPa
00:00
6,0 km/h
W-SW
40,1 km/h
14:45  
3,8 l/m²
3:00 Stunden
81 %63 %
16:25
86 %
11:00
28 klux120 klux
14:35
2:45 Std 
29.
Juni
16,2 °C13,6 °C
04:36
22,1 °C
17:21
997,2 hPa994,6 hPa
03:31
1000,9 hPa
23:47
6,9 km/h
W-SW
57,0 km/h
17:46  
8,1 l/m²
4:25 Stunden
84 %64 %
17:36
90 %
06:16
25 klux91 klux
16:06
1:15 Std 
30.
Juni
15,8 °C13,0 °C
23:48
20,2 °C
18:07
1004,0 hPa1000,8 hPa
00:12
1006,1 hPa
23:48
14,1 km/h
W-SW
37,2 km/h
09:17  
---
5 Minuten
75 %60 %
16:17
88 %
00:02
28,2 klux90,3 klux
09:37
2:35 Std 



Juni
2017

Temperatur

  

Luftdruck

  

Wind

  

Regen

  

Luftfeuchte

  

Helligkeit

Sonnen-
schein

Ø

Min

Max

Ø

Min

Max

Ø

Max

Max

Ø

Min

Max

Ø

Max

Max

18,5 °C

7,3 °C

05:53 Uhr
10.06.2017

35,1 °C

18:13 Uhr
20.06.2017

1013,6 hPa

994,6 hPa

03:31 Uhr
29.06.2017

1025,8 hPa

08:45 Uhr
17.06.2017

7,9 km/h

W-SW

57,5 km/h

14:20 Uhr
07.06.2017

16,9 l/m²

2:00 Stunden
03.06.2017

68 %

29 %

16:28 Uhr
20.06.2017

91 %

06:22 Uhr
04.06.2017

41,9 klux

124,0 klux

14:23 Uhr
25.06.2017

14:10 Std

am
19.06.2017

Gesamt

Gesamt

57,9 l/m²

14 Tage
28:55 h

234:11 Std


Wetter-Diagramme Juni 2017     Heinzenberg / Taunus   
TemperaturLuftfeuchte
SolarstrahlungLuftdruck
HelligkeitSonnenschein
RegenmengeRegendauer
Wind-GeschwindigkeitWind-Richtung